Back to catalog

STARLINK-5577

AliveCommunicationsVLEO
NORAD 55751·PAYLOAD·🇺🇸 United States

Launched Mar 3, 2023 from Vandenberg Space Force Base

Loading…

Next Passes (next 24 hours)

TLE

FreshSource: CelesTrak SupGP

Epoch: Sep 14, 2026, 21:17 UTC

1 55751C 23028L   26257.88729167 -.00015702  00000+0 -13160-2 0  2574
2 55751  70.0000 127.5151 0002752 271.0669 241.6558 14.98337253    18

Track STARLINK-5577 in real time with AllMySat

Download on the App Store